Homer, AK

3:37 PM AKDT on July 27, 2017 (GMT -0800)
Homer

Weather History for PAHO - July, 2012

Change the Weather History Date:

Sunday, July 1, 2012

  Actual Average Record
Temperature  
Mean Temperature 51 °F -  
Max Temperature 54 °F 59 °F 73 °F (1953)
Min Temperature 48 °F 45 °F 34 °F (1949)
Degree Days  
Heating Degree Days 14    
Growing Degree Days 1 (Base 50)    
Moisture  
Dew Point 43 °F    
Average Humidity 75    
Maximum Humidity 83    
Minimum Humidity 64    
Precipitation  
Precipitation 0.00 in - - ()
Sea Level Pressure  
Sea Level Pressure 29.84 in    
Wind  
Wind Speed 5 mph (West)    
Max Wind Speed 13 mph    
Max Gust Speed 17 mph    
Visibility 10 miles    
Events      
Averages and records for this station are not official NWS values.
T = Trace of Precipitation, MM = Missing Value Source: NWS Daily Summary

Daily Weather History Graph

Daily Weather History Graph

Search for Another Location

Airport or City:

Trip Planner

Search our weather history database for the weather conditions in past years. The results will help you decide how hot, cold, wet, or windy it might be!

Date:

Astronomy

Jul. 01, 2012 Rise Set
Actual Time 4:52 AM AKDT 11:26 PM AKDT
Civil Twilight 3:21 AM AKDT 12:56 AM AKDT
Nautical Twilight Sun does not set Sun does not set
Astronomical Twilight Sun does not set Sun does not set
Moon 9:30 PM AKDT (7/1) 3:03 AM AKDT (7/1)
Length of Visible Light 21h 35m
Length of Day
18h 33m
Waxing Gibbous, 95% of the Moon is Illuminated
Jul 1
Waxing Gibbous
Jul 3
Full
Jul 10
Last Quarter
Jul 18
New
Jul 26
First Quarter

Hourly Weather History & Observations

Time (AKDT) Temp. Dew Point Humidity Pressure Visibility Wind Dir Wind Speed Gust Speed Precip Events Conditions
12:53 AM 50.0 °F 43.0 °F 77% 29.78 in 10.0 mi South 4.6 mph - N/A   Overcast
1:53 AM 50.0 °F 44.1 °F 80% 29.79 in 10.0 mi NW 3.5 mph - N/A   Overcast
2:53 AM 50.0 °F 44.1 °F 80% 29.79 in 10.0 mi Calm Calm - N/A   Overcast
3:53 AM 50.0 °F 43.0 °F 77% 29.80 in 10.0 mi Calm Calm - N/A   Overcast
4:53 AM 50.0 °F 43.0 °F 77% 29.81 in 10.0 mi West 4.6 mph - N/A   Overcast
5:53 AM 48.9 °F 42.1 °F 77% 29.81 in 10.0 mi Calm Calm - N/A   Mostly Cloudy
6:53 AM 48.9 °F 43.0 °F 80% 29.82 in 10.0 mi West 3.5 mph - N/A   Mostly Cloudy
7:53 AM 48.9 °F 44.1 °F 83% 29.83 in 10.0 mi West 5.8 mph - N/A   Mostly Cloudy
8:53 AM 50.0 °F 45.0 °F 83% 29.83 in 10.0 mi WSW 5.8 mph - N/A   Mostly Cloudy
9:53 AM 51.1 °F 45.0 °F 80% 29.84 in 10.0 mi WSW 4.6 mph - N/A   Mostly Cloudy
10:53 AM 51.1 °F 43.0 °F 74% 29.85 in 10.0 mi West 4.6 mph - N/A   Mostly Cloudy
11:53 AM 51.1 °F 44.1 °F 77% 29.86 in 10.0 mi WSW 9.2 mph - N/A   Mostly Cloudy
12:53 PM 53.1 °F 44.1 °F 71% 29.86 in 10.0 mi WSW 10.4 mph - N/A   Overcast
1:53 PM 52.0 °F 45.0 °F 77% 29.87 in 10.0 mi WSW 10.4 mph - N/A   Overcast
2:53 PM 53.1 °F 45.0 °F 74% 29.87 in 10.0 mi WSW 11.5 mph - N/A   Overcast
3:53 PM 53.1 °F 44.1 °F 71% 29.87 in 10.0 mi West 11.5 mph - N/A   Overcast
4:53 PM 53.1 °F 43.0 °F 69% 29.87 in 10.0 mi West 12.7 mph - N/A   Scattered Clouds
5:53 PM 54.0 °F 43.0 °F 66% 29.88 in 10.0 mi West 12.7 mph 17.3 mph N/A   Mostly Cloudy
6:53 PM 54.0 °F 42.1 °F 64% 29.87 in 10.0 mi West 9.2 mph - N/A   Clear
7:53 PM 53.1 °F 41.0 °F 64% 29.87 in 10.0 mi West 10.4 mph - N/A   Clear
8:53 PM 53.1 °F 42.1 °F 66% 29.87 in 10.0 mi WSW 6.9 mph - N/A   Clear
9:53 PM 51.1 °F 43.0 °F 74% 29.88 in 10.0 mi West 6.9 mph - N/A   Clear
10:53 PM 48.9 °F 42.1 °F 77% 29.88 in 10.0 mi West 5.8 mph - N/A   Clear
11:53 PM 50.0 °F 42.1 °F 74% 29.88 in 10.0 mi WNW 4.6 mph - N/A   Clear